Accueil
METAR-TAF:

METAR-TAF

Aéroports :

Cleburne Municipal Airport

Cleburne, Texas, États-Unis

latitude: 32-21-13N, longitude: 097-26-01W, altitude: 260 m

Observation

Le bulletin a été fait il y a 21 minutes, à 02:15 UTC
Vent 6 kt de sud/sud-est
Température 7°C
Humidité 57%
Pression 1028 hPa
Visibilité: 16.1 km
Ciel clair

METAR: KCPT 110215Z AUTO 16006KT 10SM CLR 07/M01 A3037 RMK AO2

Heure: 20:36 (02:36 UTC)


TAF: absent

Observations et prévisions météorologiques de plus de 4000 aéroports (messages METAR et TAF).

Les stations disponibles sont représentées par des disques jaunes et rouges sur la carte.

Passer la souris dessus pour voir le nom de la station.

Cliquer dessus pour voir les observations et prévisions météorologiques.

Pour changer de carte: cliquez sur les boutons verts avec une croix noire pour zoomer, sur le bouton vert avec un tiret pour effectuer un zoom arrière, ou sur les flèches vertes pour les cartes adjacentes.


METAR-TAF: